TimeCST,TemperatureF,Dew PointF,Humidity,Sea Level PressureIn,VisibilityMPH,Wind Direction,Wind SpeedMPH,Gust SpeedMPH,PrecipitationIn,Events,Conditions,WindDirDegrees,DateUTC
12:10 AM,32.0,28.4,87,29.75,10.0,SSW,6.9,-,N/A,,Clear,200,2008-01-05 06:10:00
12:30 AM,30.2,28.4,93,29.75,10.0,SSW,8.1,-,N/A,,Clear,210,2008-01-05 06:30:00
12:50 AM,30.2,28.4,93,29.74,10.0,SSW,8.1,-,N/A,,Clear,200,2008-01-05 06:50:00
1:10 AM,30.2,28.4,93,29.74,10.0,SSW,6.9,-,N/A,,Clear,210,2008-01-05 07:10:00
1:30 AM,30.2,28.4,93,29.73,10.0,SSW,8.1,-,N/A,,Clear,200,2008-01-05 07:30:00
1:50 AM,28.4,28.4,100,29.73,10.0,SSW,5.8,-,N/A,,Clear,200,2008-01-05 07:50:00
2:10 AM,28.4,26.6,93,29.73,10.0,SSW,4.6,-,N/A,,Clear,210,2008-01-05 08:10:00
2:30 AM,28.4,26.6,93,29.73,7.0,SSW,4.6,-,N/A,,Clear,200,2008-01-05 08:30:00
2:50 AM,26.6,24.8,93,29.73,10.0,SSW,6.9,-,N/A,,Clear,200,2008-01-05 08:50:00
3:10 AM,26.6,26.6,100,29.72,10.0,South,8.1,-,N/A,,Clear,190,2008-01-05 09:10:00
3:30 AM,26.6,26.6,100,29.71,10.0,South,6.9,-,N/A,,Clear,190,2008-01-05 09:30:00
3:50 AM,26.6,26.6,100,29.71,10.0,South,5.8,-,N/A,,Clear,190,2008-01-05 09:50:00
4:10 AM,26.6,24.8,93,29.70,10.0,South,5.8,-,N/A,,Clear,190,2008-01-05 10:10:00
4:30 AM,26.6,24.8,93,29.69,10.0,South,5.8,-,N/A,,Clear,190,2008-01-05 10:30:00
4:50 AM,28.4,26.6,93,29.68,10.0,South,8.1,-,N/A,,Clear,180,2008-01-05 10:50:00
5:10 AM,28.4,24.8,86,29.69,10.0,SSW,4.6,-,N/A,,Clear,200,2008-01-05 11:10:00
5:30 AM,26.6,24.8,93,29.69,10.0,SSW,3.5,-,N/A,,Clear,200,2008-01-05 11:30:00
5:50 AM,26.6,24.8,93,29.69,10.0,South,4.6,-,N/A,,Clear,190,2008-01-05 11:50:00
6:10 AM,26.6,23.0,86,29.70,10.0,South,5.8,-,N/A,,Clear,180,2008-01-05 12:10:00
6:30 AM,26.6,24.8,93,29.71,10.0,SSW,5.8,-,N/A,,Clear,200,2008-01-05 12:30:00
6:50 AM,28.4,26.6,93,29.72,10.0,SSW,8.1,-,N/A,,Clear,200,2008-01-05 12:50:00
7:10 AM,28.4,24.8,86,29.71,10.0,South,8.1,-,N/A,,Clear,180,2008-01-05 13:10:00
7:30 AM,28.4,26.6,93,29.73,10.0,South,3.5,-,N/A,,Clear,190,2008-01-05 13:30:00
7:50 AM,28.4,26.6,93,29.72,10.0,South,9.2,-,N/A,,Clear,190,2008-01-05 13:50:00
8:10 AM,28.4,24.8,86,29.72,10.0,South,5.8,-,N/A,,Clear,190,2008-01-05 14:10:00
8:30 AM,28.4,26.6,93,29.71,10.0,South,6.9,-,N/A,,Clear,170,2008-01-05 14:30:00
8:50 AM,30.2,26.6,86,29.70,10.0,South,5.8,-,N/A,,Clear,180,2008-01-05 14:50:00
9:10 AM,32.0,28.4,87,29.70,10.0,South,11.5,16.1,N/A,,Clear,180,2008-01-05 15:10:00
9:30 AM,32.0,28.4,87,29.69,10.0,South,9.2,-,N/A,,Clear,180,2008-01-05 15:30:00
9:50 AM,33.8,28.4,81,29.68,10.0,SSE,5.8,-,N/A,,Clear,160,2008-01-05 15:50:00
10:10 AM,33.8,28.4,81,29.68,10.0,South,6.9,-,N/A,,Clear,170,2008-01-05 16:10:00
10:30 AM,35.6,30.2,81,29.68,10.0,South,6.9,-,N/A,,Clear,190,2008-01-05 16:30:00
10:50 AM,37.4,30.2,75,29.68,10.0,SSE,5.8,-,N/A,,Clear,150,2008-01-05 16:50:00
11:10 AM,39.2,30.2,70,29.67,10.0,South,6.9,-,N/A,,Clear,190,2008-01-05 17:10:00
11:30 AM,41.0,30.2,65,29.66,10.0,South,8.1,-,N/A,,Clear,170,2008-01-05 17:30:00
11:50 AM,41.0,32.0,70,29.64,10.0,South,9.2,-,N/A,,Clear,190,2008-01-05 17:50:00
12:10 PM,41.0,32.0,70,29.64,10.0,South,10.4,-,N/A,,Clear,190,2008-01-05 18:10:00
12:30 PM,41.0,32.0,70,29.63,10.0,South,9.2,-,N/A,,Clear,190,2008-01-05 18:30:00
12:50 PM,42.8,32.0,66,29.61,10.0,SSE,6.9,-,N/A,,Clear,160,2008-01-05 18:50:00
1:10 PM,41.0,32.0,70,29.61,10.0,South,6.9,-,N/A,,Clear,170,2008-01-05 19:10:00
1:30 PM,41.0,32.0,70,29.61,10.0,South,9.2,-,N/A,,Clear,180,2008-01-05 19:30:00
1:50 PM,42.8,32.0,66,29.61,10.0,South,9.2,-,N/A,,Clear,180,2008-01-05 19:50:00
2:10 PM,42.8,32.0,66,29.61,10.0,South,6.9,-,N/A,,Clear,170,2008-01-05 20:10:00
2:30 PM,41.0,33.8,76,29.60,10.0,SSE,6.9,-,N/A,,Clear,150,2008-01-05 20:30:00
2:50 PM,42.8,33.8,70,29.58,10.0,SSE,6.9,-,N/A,,Clear,160,2008-01-05 20:50:00
3:10 PM,42.8,33.8,70,29.58,10.0,SSE,9.2,-,N/A,,Clear,160,2008-01-05 21:10:00
3:30 PM,42.8,33.8,70,29.57,10.0,SE,5.8,-,N/A,,Clear,140,2008-01-05 21:30:00
3:50 PM,42.8,35.6,76,29.57,10.0,SSE,8.1,-,N/A,,Clear,150,2008-01-05 21:50:00
4:10 PM,42.8,35.6,76,29.56,10.0,SE,12.7,-,N/A,,Clear,140,2008-01-05 22:10:00
4:30 PM,42.8,35.6,76,29.56,10.0,SSE,9.2,-,N/A,,Clear,150,2008-01-05 22:30:00
4:50 PM,41.0,33.8,76,29.58,10.0,SSE,8.1,-,N/A,,Clear,160,2008-01-05 22:50:00
5:10 PM,41.0,35.6,81,29.58,10.0,SSE,10.4,-,N/A,,Clear,160,2008-01-05 23:10:00
5:30 PM,41.0,35.6,81,29.57,10.0,SSE,10.4,-,N/A,,Clear,150,2008-01-05 23:30:00
5:50 PM,39.2,35.6,87,29.58,10.0,SSE,10.4,-,N/A,,Clear,160,2008-01-05 23:50:00
6:10 PM,39.2,35.6,87,29.59,10.0,South,5.8,-,N/A,,Clear,170,2008-01-06 00:10:00
6:30 PM,39.2,35.6,87,29.59,10.0,SSE,5.8,-,N/A,,Clear,150,2008-01-06 00:30:00
6:50 PM,39.2,35.6,87,29.58,10.0,SSE,6.9,-,N/A,,Clear,150,2008-01-06 00:50:00
7:10 PM,37.4,35.6,93,29.58,10.0,SSE,6.9,-,N/A,,Clear,160,2008-01-06 01:10:00
7:30 PM,39.2,35.6,87,29.57,10.0,SSE,6.9,-,N/A,,Clear,160,2008-01-06 01:30:00
7:50 PM,39.2,35.6,87,29.56,10.0,SSE,9.2,-,N/A,,Clear,160,2008-01-06 01:50:00
8:10 PM,39.2,35.6,87,29.57,10.0,SSE,6.9,-,N/A,,Clear,150,2008-01-06 02:10:00
8:30 PM,39.2,35.6,87,29.57,10.0,SSE,5.8,-,N/A,,Clear,150,2008-01-06 02:30:00
8:50 PM,39.2,35.6,87,29.56,10.0,SE,5.8,-,N/A,,Clear,140,2008-01-06 02:50:00
9:10 PM,41.0,35.6,81,29.55,10.0,SE,6.9,-,N/A,,Clear,140,2008-01-06 03:10:00
9:30 PM,41.0,35.6,81,29.54,10.0,SSE,8.1,-,N/A,,Clear,150,2008-01-06 03:30:00
9:50 PM,41.0,35.6,81,29.54,10.0,SSE,8.1,-,N/A,,Clear,150,2008-01-06 03:50:00
10:10 PM,41.0,35.6,81,29.54,10.0,SSE,5.8,-,N/A,,Clear,160,2008-01-06 04:10:00
10:30 PM,41.0,35.6,81,29.53,10.0,South,9.2,-,N/A,,Clear,170,2008-01-06 04:30:00
10:50 PM,41.0,35.6,81,29.53,10.0,South,5.8,-,N/A,,Clear,180,2008-01-06 04:50:00
11:10 PM,39.2,33.8,81,29.54,10.0,South,5.8,-,N/A,,Clear,190,2008-01-06 05:10:00
11:30 PM,37.4,33.8,87,29.54,10.0,SSW,3.5,-,N/A,,Clear,200,2008-01-06 05:30:00
11:50 PM,37.4,33.8,87,29.53,10.0,South,6.9,-,N/A,,Clear,190,2008-01-06 05:50:00